Tracking 18980 objects as of 20-Feb-2018
HD Live streaming from Space Station
objects crossing your sky now

FENGYUN 1C DEB

Track FENGYUN 1C DEB now!
10-day predictions


NORAD ID: 35176
Int'l Code: 1999-025DNG
Perigee: 813.8 km
Apogee: 893.7 km
Inclination: 98.7 °
Period: 101.9 minutes
Semi major axis: 7224 km
RCS: 0.0129 m2 (small)
Launch date: May 10, 1999
Source: People's Republic of China (PRC)
Launch site: Taiyaun Space Center, China (TSC)

Note: This is SATELLITE DEBRIS
aabbcc
Your satellite tracking list
Your tracking list is empty




NASA's NSSDC Master Catalog

Two Line Element Set (TLE):
1 35176U 99025DNG 18050.36562900 +.00000126 +00000-0 +88577-4 0  9990
2 35176 098.7419 106.2548 0055256 312.7012 046.9514 14.13731189505868
Source of the keplerian elements: AFSPC